Location: Bonneuil
(46.1010°N, 2.9693°E)
Time: 11:07:04
(UTC+00:00)

Cosmos 1300 - Pass Details

Date: 09 April 2020
Orbit: 511 x 515 km, 82.5° (Epoch: 06 June)

Event Time Altitude Azimuth Distance (km) Brightness Sun altitude
Exits shadow 20:17:29 - 196° (SSW) 1,797 5.3 -18.2°
Reaches altitude 10° 20:17:38 10° 196° (SSW) 1,734 5.2 -18.3°
Maximum altitude 20:21:25 68° 280° (W) 558 2.9 -18.8°
Drops below altitude 10° 20:25:15 10° 4° (N) 1,752 5.8 -19.4°
Sets 20:27:24 0° 7° (N) 2,645 6.7 -19.7°
